User: anonymous   Login
Location: Potawatomi Wildlife Park
(41.2308°N, 86.1050°W)
Time: 05:29:50
(UTC-04:00)
Language:

SL-16 R/B - Orbit

View from above orbital plane
View from above orbital plane
View from above satellite
View from above satellite

Ground track
Ground track

The orbit data is extracted from the following two-line orbital elements,

1 27006U 01056F   14297.59715752  .00000050  00000-0  10348-3 0  2741
2 27006 099.1787 099.6313 0013844 315.7439 085.9078 13.70925926644051
Epoch (UTC): 24 October 2014 14:19:54
Eccentricity: 0.0013844
inclination: 99.1787°
perigee height: 986 km
apogee height: 1006 km
right ascension of ascending node: 99.6313°
argument of perigee: 315.7439°
revolutions per day: 13.70925926
mean anomaly at epoch: 85.9078°
orbit number at epoch: 64405

The dashed part of the orbit path shows where the satellite is in the earth's shadow,  

DLR